{"data":{"norad_id":66970,"epoch":"2026-09-20T07:12:45.181152Z","epoch_age_seconds":98521,"freshness":"FRESH","line1":"1 66970U 25288M   26263.30052293  .00013668  00000+0  50515-3 0  9998","line2":"2 66970  42.9978   4.1292 0000676 265.7588  94.3186 15.27589594 45057","mean_motion":15.27589594,"eccentricity":6.76e-5,"inclination_deg":42.9978,"raan_deg":4.1292,"arg_perigee_deg":265.7588,"mean_anomaly_deg":94.3186,"bstar":0.00050515,"rev_number":4505,"period_min":94.266156672968,"perigee_km":482.55655406449,"apogee_km":483.48418254068,"semimajor_km":6861.1573683026,"source":"CELESTRAK","updated_at":"2026-09-21T09:00:36.064248Z"}}